Weather Roundup
Issued by NWS Springfield, MO

Home | Current Version | Previous Version | Text Only | Print | Product List | Glossary On
Versions: 1 2 3 4 5 6 7 8 9 10 11 12 13 14 15 16 17 18 19 20 21 22 23 24 25 26 27 28 29 30 31 32 33 34 35 36 37 38 39 40 41 42 43 44 45 46 47 48 49 50
000
NZUS99 KSGF 300407
HRRSGF

HOURLY WEATHER
NATIONAL WEATHER SERVICE SPRINGFIELD MO
1100 PM CDT TUE JUL 29 2014

......SGF CWA......

CITY           SKY/WX    TMP DP  RH WIND       PRES   REMARKS
SPRINGFIELD    MOCLDY    69  61  75 W3        30.10S HAZE
JOPLIN         PTCLDY    67  61  81 CALM      30.10S
WEST PLAINS    PTCLDY    65  58  78 SE3       30.12S
ROLLA          MOCLDY    67  54  63 E3        30.10R
OSAGE BEACH    PTCLDY    66  55  68 CALM      30.10S
BRANSON        MOCLDY    68  59  73 CALM      30.12R

......SURROUNDING SGF CWA......

CITY           SKY/WX    TMP DP  RH WIND       PRES   REMARKS
CHANUTE        MOCLDY    65  61  87 CALM      30.10R
PARSONS        MOCLDY    69  62  78 CALM      30.10R
COFFEYVILLE    PTCLDY    70  62  76 E5        30.09R
EMPORIA        MOCLDY    65  59  81 S5        30.11R
GROVE OK       PTCLDY    70  63  78 CALM      30.10R
ROGERS AR      PTCLDY    70  62  76 CALM      30.12S
SILOAM SPRINGS CLEAR     66  57  72 CALM      30.12S
HARRISON AR    CLEAR     68  61  78 CALM      30.12R
NEAR YELLVILLE CLEAR     70  59  68 CALM      30.10R

......KANSAS AND MISSOURI......

CITY           SKY/WX    TMP DP  RH WIND       PRES   REMARKS
KANSAS CTY INT PTCLDY    70  59  68 NE5       30.11R
DOWNTOWN KC    CLEAR     74  58  57 NE3       30.10R
COLUMBIA       CLEAR     69  58  67 SE3       30.10S
SEDALIA        PTCLDY    66  59  78 CALM      30.11R
ST JOSEPH      PTCLDY    64  60  87 N7        30.12R
ST LOUIS       CLEAR     70  56  61 CALM      30.10R
SPIRIT OF STL  CLEAR     62  58  86 CALM      30.09R
KIRKSVILLE     CLEAR     59  57  93 CALM      30.11R
WICHITA        MOCLDY    75  64  68 E13       30.09R
TOPEKA         PTCLDY    72  61  68 CALM      30.11R
OLATHE         CLOUDY    72  58  61 NE5       30.11R

......TENNESSEE......

CITY           SKY/WX    TMP DP  RH WIND       PRES   REMARKS
MEMPHIS        CLEAR     68  55  63 CALM      30.11R
NASHVILLE      CLEAR     66  55  67 CALM      30.10R

......ARKANSAS.......

CITY           SKY/WX    TMP DP  RH WIND       PRES   REMARKS
FAYETTEVILLE   CLEAR     66  62  87 CALM      30.11S
FT SMITH       MOCLDY    76  67  73 E3        30.06R
LITTLE ROCK    MOCLDY    72  62  71 SE5       30.09S

......OKLAHOMA.......

CITY           SKY/WX    TMP DP  RH WIND       PRES   REMARKS
TULSA          MOCLDY    78  65  63 E5        30.05S
PONCA CITY     CLOUDY    76  61  59 CALM      30.09R
MCALESTER      MOCLDY    75  67  76 CALM      30.08R
OKLAHOMA CITY  CLOUDY    76  61  59 CALM      30.09S

......IOWA............

CITY           SKY/WX    TMP DP  RH WIND       PRES   REMARKS
DES MOINES     CLEAR     67  56  67 CALM      30.10S
QUAD CITIES    CLEAR     63  57  81 W5        30.05R

......ILLINOIS........

CITY           SKY/WX    TMP DP  RH WIND       PRES   REMARKS
QUINCY         CLEAR     63  57  81 SW3       30.09R
CHICAGO        CLOUDY    63  56  78 N10       30.02F




USA.gov is the U.S. government's official web portal to all federal, state and local government web resources and services.